Location: Burera
(21.3780°N, 81.9534°E)
Time: 00:39:27
(UTC+00:00)

Meteor 1-31 Rocket - Pass Details

Date: 13 August 2020
Orbit: 520 x 548 km, 97.6° (Epoch: 22 September)

Event Time Altitude Azimuth Distance (km) Brightness Sun altitude
Rises 22:38:13 0° 24° (NNE) 2,660 7.1 -20.9°
Reaches altitude 10° 22:40:29 10° 33° (NNE) 1,764 6.2 -20.4°
Maximum altitude 22:43:57 33° 99° (E) 883 4.3 -19.7°
Drops below altitude 10° 22:47:22 10° 165° (SSE) 1,748 5.3 -19.0°
Enters shadow 22:48:26 - 171° (S) 2,164 5.7 -18.7°
